Time,TemperatureF,DewpointF,PressureIn,WindDirection,WindDirectionDegrees,WindSpeedMPH,WindSpeedGustMPH,Humidity,HourlyPrecipIn,Conditions,Clouds,dailyrainin,SoftwareType,DateUTC
2013-04-03 00:02:00,33.0,33.0,-100.00,SSW,210,0.0,0.0,99,0.00,,,-99.99,,2013-04-03 06:02:00,
2013-04-03 00:12:00,33.0,33.0,-100.00,SSW,205,0.0,0.0,99,0.00,,,-99.99,,2013-04-03 06:12:00,
2013-04-03 00:22:00,33.0,33.0,-100.00,SSW,205,0.0,0.0,99,0.00,,,-99.99,,2013-04-03 06:22:00,
2013-04-03 00:32:00,33.0,33.0,-100.00,SSW,205,0.0,0.0,99,0.00,,,-99.99,,2013-04-03 06:32:00,
2013-04-03 00:42:00,33.0,33.0,-100.00,WNW,295,0.0,0.0,99,0.00,,,-99.99,,2013-04-03 06:42:00,
2013-04-03 00:52:00,33.0,33.0,-100.00,WNW,295,0.0,0.0,99,0.00,,,-99.99,,2013-04-03 06:52:00,
2013-04-03 01:02:00,33.0,33.0,-100.00,WNW,290,0.0,0.0,99,0.00,,,-99.99,,2013-04-03 07:02:00,
2013-04-03 01:12:00,33.0,33.0,-100.00,WNW,290,0.0,0.0,99,0.00,,,-99.99,,2013-04-03 07:12:00,
2013-04-03 01:23:00,33.0,33.0,-100.00,East,85,0.0,0.0,99,0.00,,,-99.99,,2013-04-03 07:23:00,
2013-04-03 01:32:00,33.0,33.0,-100.00,WNW,295,0.0,0.0,99,0.00,,,-99.99,,2013-04-03 07:32:00,
2013-04-03 01:42:00,33.0,33.0,-100.00,WNW,295,0.0,0.0,99,0.00,,,-99.99,,2013-04-03 07:42:00,
2013-04-03 01:52:00,33.0,33.0,-100.00,WNW,285,0.0,0.0,99,0.00,,,-99.99,,2013-04-03 07:52:00,
2013-04-03 02:03:00,33.0,33.0,-100.00,WNW,295,0.0,0.0,99,0.00,,,-99.99,,2013-04-03 08:03:00,
2013-04-03 02:12:00,33.0,33.0,-100.00,WSW,255,0.0,0.0,99,0.00,,,-99.99,,2013-04-03 08:12:00,
2013-04-03 02:22:00,33.0,32.0,-100.00,NE,35,0.0,0.0,99,0.00,,,-99.99,,2013-04-03 08:22:00,
2013-04-03 02:32:00,32.0,32.0,-100.00,West,270,0.0,0.0,99,0.00,,,-99.99,,2013-04-03 08:32:00,
2013-04-03 02:42:00,33.0,32.0,-100.00,NW,320,0.0,0.0,99,0.00,,,-99.99,,2013-04-03 08:42:00,
2013-04-03 02:52:00,32.0,32.0,-100.00,WSW,250,0.0,0.0,99,0.00,,,-99.99,,2013-04-03 08:52:00,
2013-04-03 03:02:00,33.0,32.0,-100.00,WSW,250,0.0,0.0,99,0.00,,,-99.99,,2013-04-03 09:02:00,
2013-04-03 03:12:00,33.0,33.0,-100.00,NW,305,0.0,0.0,99,0.00,,,-99.99,,2013-04-03 09:12:00,
2013-04-03 03:22:00,33.0,32.0,-100.00,NW,315,0.0,0.0,99,0.00,,,-99.99,,2013-04-03 09:22:00,
2013-04-03 03:33:00,32.0,32.0,-100.00,NNE,20,0.0,0.0,99,0.00,,,-99.99,,2013-04-03 09:33:00,
2013-04-03 03:43:00,32.0,32.0,-100.00,NNE,30,0.0,0.0,99,0.00,,,-99.99,,2013-04-03 09:43:00,
2013-04-03 03:53:00,32.0,32.0,-100.00,NE,40,0.0,0.0,99,0.00,,,-99.99,,2013-04-03 09:53:00,
2013-04-03 04:03:00,31.0,31.0,-100.00,East,80,0.0,0.0,99,0.00,,,-99.99,,2013-04-03 10:03:00,
2013-04-03 04:12:00,31.0,31.0,-100.00,East,100,0.0,0.0,99,0.00,,,-99.99,,2013-04-03 10:12:00,
2013-04-03 04:22:00,31.0,31.0,-100.00,ESE,115,0.0,0.0,99,0.00,,,-99.99,,2013-04-03 10:22:00,
2013-04-03 04:33:00,30.0,30.0,-100.00,East,80,0.0,0.0,99,0.00,,,-99.99,,2013-04-03 10:33:00,
2013-04-03 04:43:00,30.0,30.0,-100.00,East,85,0.0,0.0,99,0.00,,,-99.99,,2013-04-03 10:43:00,
2013-04-03 04:52:00,30.0,30.0,-100.00,SE,135,0.0,0.0,99,0.00,,,-99.99,,2013-04-03 10:52:00,
2013-04-03 05:02:00,30.0,30.0,-100.00,ESE,120,0.0,0.0,99,0.00,,,-99.99,,2013-04-03 11:02:00,
2013-04-03 05:12:00,30.0,29.0,-100.00,SE,135,0.0,0.0,99,0.00,,,-99.99,,2013-04-03 11:12:00,
2013-04-03 05:22:00,30.0,29.0,-100.00,ESE,120,0.0,0.0,99,0.00,,,-99.99,,2013-04-03 11:22:00,
2013-04-03 05:32:00,30.0,30.0,-100.00,ESE,110,0.0,0.0,99,0.00,,,-99.99,,2013-04-03 11:32:00,
2013-04-03 05:42:00,30.0,30.0,-100.00,ESE,105,0.0,0.0,99,0.00,,,-99.99,,2013-04-03 11:42:00,
2013-04-03 05:53:00,30.0,30.0,-100.00,SE,140,0.0,0.0,99,0.00,,,-99.99,,2013-04-03 11:53:00,
2013-04-03 06:02:00,30.0,30.0,-100.00,SE,140,0.0,0.0,99,0.00,,,-99.99,,2013-04-03 12:02:00,
2013-04-03 06:13:00,30.0,30.0,-100.00,SE,125,0.0,0.0,99,0.00,,,-99.99,,2013-04-03 12:13:00,
2013-04-03 06:22:00,30.0,30.0,-100.00,ESE,110,0.0,0.0,99,0.00,,,-99.99,,2013-04-03 12:22:00,
2013-04-03 06:32:00,30.0,30.0,-100.00,SE,135,0.0,0.0,99,0.00,,,-99.99,,2013-04-03 12:32:00,
2013-04-03 06:42:00,30.0,30.0,-100.00,SSE,165,0.0,0.0,99,0.00,,,-99.99,,2013-04-03 12:42:00,
2013-04-03 06:52:00,30.0,29.0,-100.00,East,95,0.0,0.0,99,0.00,,,-99.99,,2013-04-03 12:52:00,
2013-04-03 07:02:00,29.0,29.0,-100.00,SE,135,0.0,0.0,99,0.00,,,-99.99,,2013-04-03 13:02:00,
2013-04-03 07:12:00,29.0,29.0,-100.00,SE,135,0.0,0.0,99,0.00,,,-99.99,,2013-04-03 13:12:00,
2013-04-03 07:22:00,29.0,29.0,-100.00,ESE,115,0.0,0.0,99,0.00,,,-99.99,,2013-04-03 13:22:00,
2013-04-03 07:32:00,29.0,29.0,-100.00,ESE,105,0.0,0.0,99,0.00,,,-99.99,,2013-04-03 13:32:00,
2013-04-03 07:42:00,29.0,29.0,-100.00,East,100,0.0,0.0,99,0.00,,,-99.99,,2013-04-03 13:42:00,
2013-04-03 07:52:00,29.0,29.0,-100.00,ENE,70,0.0,0.0,99,0.00,,,-99.99,,2013-04-03 13:52:00,
2013-04-03 08:02:00,29.0,28.0,-100.00,East,80,0.0,0.0,99,0.00,,,-99.99,,2013-04-03 14:02:00,
2013-04-03 08:12:00,29.0,28.0,-100.00,ENE,65,0.0,0.0,99,0.00,,,-99.99,,2013-04-03 14:12:00,
2013-04-03 08:22:00,29.0,29.0,-100.00,ENE,75,0.0,0.0,99,0.00,,,-99.99,,2013-04-03 14:22:00,
2013-04-03 08:32:00,29.0,29.0,-100.00,ENE,65,0.0,0.0,99,0.00,,,-99.99,,2013-04-03 14:32:00,
2013-04-03 08:42:00,29.0,29.0,-100.00,East,80,0.0,0.0,99,0.00,,,-99.99,,2013-04-03 14:42:00,
2013-04-03 08:52:00,29.0,29.0,-100.00,ESE,110,0.0,0.0,99,0.00,,,-99.99,,2013-04-03 14:52:00,
2013-04-03 09:02:00,29.0,29.0,-100.00,ESE,110,0.0,0.0,99,0.00,,,-99.99,,2013-04-03 15:02:00,
2013-04-03 09:12:00,31.0,31.0,-100.00,ESE,105,0.0,0.0,99,0.00,,,-99.99,,2013-04-03 15:12:00,
2013-04-03 09:23:00,31.0,31.0,-100.00,ESE,110,0.0,0.0,99,0.00,,,-99.99,,2013-04-03 15:23:00,
2013-04-03 09:33:00,32.0,32.0,-100.00,East,95,0.0,0.0,99,0.00,,,-99.99,,2013-04-03 15:33:00,
2013-04-03 09:42:00,33.0,33.0,-100.00,East,95,0.0,0.0,99,0.00,,,-99.99,,2013-04-03 15:42:00,
2013-04-03 09:53:00,35.0,35.0,-100.00,ENE,75,4.0,4.0,98,0.00,,,-99.99,,2013-04-03 15:53:00,
2013-04-03 10:03:00,35.0,35.0,-100.00,ESE,105,2.0,4.0,98,0.00,,,-99.99,,2013-04-03 16:03:00,
2013-04-03 10:12:00,38.0,37.0,-100.00,SSE,150,1.0,4.0,97,0.00,,,-99.99,,2013-04-03 16:12:00,
2013-04-03 10:24:00,36.0,33.0,-100.00,WNW,295,7.0,9.0,88,0.00,,,-99.99,,2013-04-03 16:24:00,
2013-04-03 10:32:00,36.0,31.0,-100.00,WNW,290,6.0,10.0,83,0.00,,,-99.99,,2013-04-03 16:32:00,
2013-04-03 10:43:00,36.0,30.0,-100.00,WNW,290,8.0,10.0,79,0.00,,,-99.99,,2013-04-03 16:43:00,
2013-04-03 10:52:00,36.0,30.0,-100.00,WNW,285,6.0,10.0,78,0.00,,,-99.99,,2013-04-03 16:52:00,
2013-04-03 11:03:00,37.0,30.0,-100.00,WNW,290,7.0,11.0,77,0.00,,,-99.99,,2013-04-03 17:03:00,
2013-04-03 11:13:00,37.0,30.0,-100.00,WNW,295,6.0,9.0,75,0.00,,,-99.99,,2013-04-03 17:13:00,
2013-04-03 11:23:00,38.0,30.0,-100.00,WNW,285,4.0,7.0,73,0.00,,,-99.99,,2013-04-03 17:23:00,
2013-04-03 11:33:00,38.0,29.0,-100.00,WNW,300,8.0,11.0,69,0.00,,,-99.99,,2013-04-03 17:33:00,
2013-04-03 11:45:00,38.0,28.0,-100.00,West,275,8.0,11.0,66,0.00,,,-99.99,,2013-04-03 17:45:00,
2013-04-03 11:53:00,40.0,28.0,-100.00,WNW,290,10.0,12.0,62,0.00,,,-99.99,,2013-04-03 17:53:00,
2013-04-03 12:02:00,40.0,28.0,-100.00,WNW,300,9.0,12.0,62,0.00,,,-99.99,,2013-04-03 18:02:00,
2013-04-03 12:13:00,41.0,29.0,-100.00,NW,305,9.0,12.0,62,0.00,,,-99.99,,2013-04-03 18:13:00,
2013-04-03 12:22:00,41.0,30.0,-100.00,WNW,295,9.0,13.0,62,0.00,,,-99.99,,2013-04-03 18:22:00,
2013-04-03 12:33:00,43.0,30.0,-100.00,WNW,295,8.0,12.0,61,0.00,,,-99.99,,2013-04-03 18:33:00,
2013-04-03 12:43:00,43.0,30.0,-100.00,WNW,295,9.0,17.0,60,0.00,,,-99.99,,2013-04-03 18:43:00,
2013-04-03 12:52:00,44.0,30.0,-100.00,NW,305,7.0,14.0,57,0.00,,,-99.99,,2013-04-03 18:52:00,
2013-04-03 13:02:00,44.0,29.0,-100.00,WNW,295,12.0,14.0,55,0.00,,,-99.99,,2013-04-03 19:02:00,
2013-04-03 13:12:00,45.0,29.0,-100.00,WNW,295,11.0,16.0,52,0.00,,,-99.99,,2013-04-03 19:12:00,
2013-04-03 13:22:00,46.0,27.0,-100.00,West,260,8.0,14.0,47,0.00,,,-99.99,,2013-04-03 19:22:00,
2013-04-03 13:32:00,45.0,26.0,-100.00,WNW,295,9.0,18.0,46,0.00,,,-99.99,,2013-04-03 19:32:00,
2013-04-03 13:42:00,47.0,27.0,-100.00,SW,225,4.0,12.0,44,0.00,,,-99.99,,2013-04-03 19:42:00,
2013-04-03 13:52:00,47.0,25.0,-100.00,WNW,295,11.0,14.0,41,0.00,,,-99.99,,2013-04-03 19:52:00,
2013-04-03 14:02:00,47.0,24.0,-100.00,WNW,290,7.0,13.0,40,0.00,,,-99.99,,2013-04-03 20:02:00,
2013-04-03 14:12:00,47.0,24.0,-100.00,WNW,295,12.0,20.0,39,0.00,,,-99.99,,2013-04-03 20:12:00,
2013-04-03 14:23:00,47.0,24.0,-100.00,West,280,7.0,17.0,39,0.00,,,-99.99,,2013-04-03 20:23:00,
2013-04-03 14:32:00,48.0,24.0,-100.00,NW,305,5.0,12.0,38,0.00,,,-99.99,,2013-04-03 20:32:00,
2013-04-03 14:42:00,47.0,22.0,-100.00,WNW,290,12.0,19.0,37,0.00,,,-99.99,,2013-04-03 20:42:00,
2013-04-03 14:53:00,47.0,22.0,-100.00,NW,310,5.0,17.0,36,0.00,,,-99.99,,2013-04-03 20:53:00,
2013-04-03 15:02:00,47.0,22.0,-100.00,WNW,290,12.0,17.0,36,0.00,,,-99.99,,2013-04-03 21:02:00,
2013-04-03 15:12:00,47.0,21.0,-100.00,WNW,290,10.0,16.0,36,0.00,,,-99.99,,2013-04-03 21:12:00,
2013-04-03 15:22:00,48.0,22.0,-100.00,WNW,285,9.0,14.0,35,0.00,,,-99.99,,2013-04-03 21:22:00,
2013-04-03 15:32:00,49.0,22.0,-100.00,WSW,240,4.0,13.0,34,0.00,,,-99.99,,2013-04-03 21:32:00,
2013-04-03 15:42:00,49.0,22.0,-100.00,West,280,1.0,15.0,33,0.00,,,-99.99,,2013-04-03 21:42:00,
2013-04-03 15:52:00,50.0,22.0,-100.00,SSE,165,4.0,11.0,32,0.00,,,-99.99,,2013-04-03 21:52:00,
2013-04-03 16:02:00,50.0,20.0,-100.00,WNW,290,14.0,24.0,29,0.00,,,-99.99,,2013-04-03 22:02:00,
2013-04-03 16:12:00,50.0,19.0,-100.00,WSW,245,3.0,16.0,28,0.00,,,-99.99,,2013-04-03 22:12:00,
2013-04-03 16:22:00,51.0,20.0,-100.00,NW,305,6.0,16.0,29,0.00,,,-99.99,,2013-04-03 22:22:00,
2013-04-03 16:32:00,49.0,18.0,-100.00,NNE,25,3.0,17.0,28,0.00,,,-99.99,,2013-04-03 22:32:00,
2013-04-03 16:42:00,51.0,19.0,-100.00,WNW,290,12.0,16.0,28,0.00,,,-99.99,,2013-04-03 22:42:00,
2013-04-03 16:52:00,50.0,19.0,-100.00,NW,310,7.0,13.0,28,0.00,,,-99.99,,2013-04-03 22:52:00,
2013-04-03 17:02:00,50.0,19.0,-100.00,WNW,290,11.0,19.0,28,0.00,,,-99.99,,2013-04-03 23:02:00,
2013-04-03 17:12:00,51.0,19.0,-100.00,North,0,4.0,12.0,27,0.00,,,-99.99,,2013-04-03 23:12:00,
2013-04-03 17:22:00,50.0,18.0,-100.00,NW,325,6.0,11.0,26,0.00,,,-99.99,,2013-04-03 23:22:00,
2013-04-03 17:32:00,51.0,18.0,-100.00,WNW,300,11.0,14.0,26,0.00,,,-99.99,,2013-04-03 23:32:00,
2013-04-03 17:42:00,51.0,18.0,-100.00,WNW,300,9.0,14.0,26,0.00,,,-99.99,,2013-04-03 23:42:00,
2013-04-03 17:54:00,51.0,17.0,-100.00,WNW,300,11.0,14.0,26,0.00,,,-99.99,,2013-04-03 23:54:00,
2013-04-03 18:02:00,51.0,17.0,-100.00,WNW,300,9.0,14.0,26,0.00,,,-99.99,,2013-04-04 00:02:00,
2013-04-03 18:12:00,51.0,18.0,-100.00,WSW,240,3.0,14.0,26,0.00,,,-99.99,,2013-04-04 00:12:00,
2013-04-03 18:22:00,51.0,17.0,-100.00,WNW,285,10.0,14.0,26,0.00,,,-99.99,,2013-04-04 00:22:00,
2013-04-03 18:32:00,50.0,17.0,-100.00,West,265,4.0,16.0,26,0.00,,,-99.99,,2013-04-04 00:32:00,
2013-04-03 18:43:00,50.0,17.0,-100.00,SW,225,4.0,14.0,26,0.00,,,-99.99,,2013-04-04 00:43:00,
2013-04-03 18:52:00,48.0,16.0,-100.00,SSW,200,1.0,9.0,26,0.00,,,-99.99,,2013-04-04 00:52:00,
2013-04-03 19:02:00,47.0,15.0,-100.00,South,180,3.0,6.0,27,0.00,,,-99.99,,2013-04-04 01:02:00,
2013-04-03 19:12:00,46.0,15.0,-100.00,WSW,255,2.0,7.0,28,0.00,,,-99.99,,2013-04-04 01:12:00,
2013-04-03 19:22:00,45.0,15.0,-100.00,SW,235,4.0,6.0,29,0.00,,,-99.99,,2013-04-04 01:22:00,
2013-04-03 19:32:00,44.0,15.0,-100.00,SW,220,3.0,9.0,30,0.00,,,-99.99,,2013-04-04 01:32:00,
2013-04-03 19:43:00,42.0,15.0,-100.00,SE,145,1.0,4.0,32,0.00,,,-99.99,,2013-04-04 01:43:00,
2013-04-03 19:52:00,41.0,16.0,-100.00,SW,230,1.0,4.0,35,0.00,,,-99.99,,2013-04-04 01:52:00,
2013-04-03 20:02:00,40.0,16.0,-100.00,SE,145,3.0,4.0,38,0.00,,,-99.99,,2013-04-04 02:02:00,
2013-04-03 20:12:00,38.0,17.0,-100.00,SE,130,2.0,6.0,41,0.00,,,-99.99,,2013-04-04 02:12:00,
2013-04-03 20:22:00,37.0,17.0,-100.00,SE,125,1.0,4.0,43,0.00,,,-99.99,,2013-04-04 02:22:00,
2013-04-03 20:32:00,36.0,18.0,-100.00,ESE,110,2.0,3.0,46,0.00,,,-99.99,,2013-04-04 02:32:00,
2013-04-03 20:42:00,36.0,18.0,-100.00,ESE,110,2.0,3.0,46,0.00,,,-99.99,,2013-04-04 02:42:00,
2013-04-03 20:52:00,36.0,18.0,-100.00,ESE,110,2.0,3.0,46,0.00,,,-99.99,,2013-04-04 02:52:00,
2013-04-03 21:02:00,35.0,20.0,-100.00,East,95,2.0,4.0,52,0.00,,,-99.99,,2013-04-04 03:02:00,
2013-04-03 21:12:00,34.0,20.0,-100.00,East,100,3.0,4.0,54,0.00,,,-99.99,,2013-04-04 03:12:00,
2013-04-03 21:22:00,35.0,21.0,-100.00,ESE,110,4.0,6.0,56,0.00,,,-99.99,,2013-04-04 03:22:00,
2013-04-03 21:33:00,34.0,21.0,-100.00,East,100,6.0,7.0,58,0.00,,,-99.99,,2013-04-04 03:33:00,
2013-04-03 21:53:00,34.0,22.0,-100.00,East,100,6.0,7.0,60,0.00,,,-99.99,,2013-04-04 03:53:00,
2013-04-03 22:03:00,34.0,22.0,-100.00,East,95,3.0,6.0,61,0.00,,,-99.99,,2013-04-04 04:03:00,
2013-04-03 22:12:00,33.0,22.0,-100.00,ESE,110,5.0,6.0,62,0.00,,,-99.99,,2013-04-04 04:12:00,
2013-04-03 22:23:00,34.0,22.0,-100.00,ENE,75,5.0,6.0,63,0.00,,,-99.99,,2013-04-04 04:23:00,
2013-04-03 22:33:00,33.0,22.0,-100.00,East,95,3.0,6.0,64,0.00,,,-99.99,,2013-04-04 04:33:00,
2013-04-03 22:43:00,32.0,22.0,-100.00,East,100,3.0,5.0,64,0.00,,,-99.99,,2013-04-04 04:43:00,
2013-04-03 22:52:00,33.0,22.0,-100.00,ESE,110,3.0,7.0,65,0.00,,,-99.99,,2013-04-04 04:52:00,
2013-04-03 23:02:00,32.0,22.0,-100.00,East,95,4.0,6.0,66,0.00,,,-99.99,,2013-04-04 05:02:00,
2013-04-03 23:13:00,31.0,22.0,-100.00,East,85,2.0,4.0,67,0.00,,,-99.99,,2013-04-04 05:13:00,
2013-04-03 23:23:00,31.0,22.0,-100.00,East,90,3.0,6.0,68,0.00,,,-99.99,,2013-04-04 05:23:00,
2013-04-03 23:32:00,30.0,21.0,-100.00,East,95,4.0,6.0,69,0.00,,,-99.99,,2013-04-04 05:32:00,
2013-04-03 23:42:00,30.0,22.0,-100.00,East,100,6.0,7.0,70,0.00,,,-99.99,,2013-04-04 05:42:00,
2013-04-03 23:53:00,30.0,22.0,-100.00,ENE,75,4.0,7.0,71,0.00,,,-99.99,,2013-04-04 05:53:00,